Theta_e
319 317 319 321 324 332 337 337 337 336 338 339 339 339 338 342 340 340 331 331 334 334 334 331 329 328 326 325 324 319 314 316 313 313 314 312 310 309 308 307 306 306 306 307
318 318 318 320 322 330 335 336 336 340 338 338 338 338 337 338 341 339 336 332 334 334 333 331 328 326 326 325 322 317 313 315 314 314 314 312 310 309 308 308 307 307 307 307
317 320 321 322 323 327 328 331 336 338 339 340 341 341 341 340 344 340 336 332 334 335 334 330 328 326 324 323 320 316 314 314 314 313 312 310 309 309 309 309 309 308 308 308
317 319 321 322 324 325 325 325 328 332 342 344 339 346 332 339 345 342 340 336 336 335 333 330 328 326 323 321 318 316 314 313 313 312 311 311 310 310 311 311 310 310 309 309
317 319 320 322 325 325 325 325 325 326 338 330 343 336 337 345 348 345 345 338 336 335 333 330 328 325 322 319 317 315 315 314 313 312 310 310 310 310 310 311 310 311 310 311
317 318 319 320 321 323 325 323 320 321 319 322 329 331 344 350 349 346 345 342 339 336 334 329 328 324 320 319 317 315 315 314 314 312 311 311 310 311 311 311 311 311 311 310
318 319 319 320 321 321 321 317 319 320 321 322 327 339 339 347 346 347 346 342 339 337 333 330 327 325 319 317 316 315 315 314 313 312 310 310 310 312 312 311 311 311 310 310
317 319 319 320 320 319 318 317 319 322 331 328 339 342 342 343 343 343 343 343 340 337 332 330 328 325 319 317 316 315 315 314 313 312 310 310 310 312 311 311 310 310 309 309
318 320 321 320 321 319 320 320 318 320 325 328 339 350 347 342 343 342 343 343 340 337 332 332 329 324 318 317 316 315 315 314 313 312 310 310 310 312 312 310 309 309 309 309
318 321 323 324 321 319 319 320 323 322 326 328 336 354 348 347 342 345 345 344 341 334 333 331 322 318 316 316 316 315 315 314 313 312 311 310 310 312 311 311 310 309 308 308
316 320 319 323 321 320 318 319 324 324 330 334 337 345 341 343 343 346 344 341 338 335 334 325 316 314 315 316 315 315 314 313 313 312 311 311 310 311 311 310 309 308 308 308
315 318 319 319 320 321 318 319 320 324 325 336 335 334 340 337 341 343 342 340 337 334 331 319 315 313 313 314 315 315 314 313 313 312 311 311 311 311 311 309 308 308 308 310
317 318 320 319 321 325 322 323 327 329 329 338 336 332 332 337 339 341 342 340 337 331 322 317 315 314 313 313 315 314 314 313 313 312 311 311 311 310 311 310 309 309 309 309
322 319 319 321 325 327 330 327 327 327 331 332 334 339 341 342 340 341 342 339 334 324 321 318 315 313 313 313 314 314 314 313 312 312 312 311 310 309 310 310 309 309 310 309
320 321 323 321 324 326 325 328 330 331 329 331 329 339 335 345 343 343 340 337 329 325 322 317 314 313 313 313 314 314 314 313 312 312 311 311 309 310 310 309 310 310 311 310
323 321 326 327 331 331 332 334 334 332 329 338 336 340 333 338 341 337 336 332 329 326 323 319 314 313 313 313 314 314 313 312 312 311 311 310 310 311 310 310 310 312 311 311
328 325 323 323 331 336 333 335 334 332 332 335 338 336 337 339 338 335 333 331 329 326 323 319 315 313 313 314 314 314 313 312 312 311 311 311 311 310 310 310 310 311 311 311
332 326 325 328 334 336 335 332 333 331 331 332 334 335 337 338 336 334 332 330 328 325 322 318 315 313 313 314 314 314 313 313 312 311 312 312 311 311 310 310 311 312 312 311
325 326 330 331 336 336 337 333 331 332 332 330 333 333 332 333 334 335 332 329 327 324 321 318 316 314 314 314 314 314 314 313 312 311 312 312 311 310 310 311 313 312 311 311
334 326 327 337 339 339 335 334 332 330 330 330 329 332 332 331 340 336 330 328 324 323 321 318 316 315 314 314 314 314 314 313 313 312 312 311 311 310 310 311 311 311 311 310
338 336 334 337 339 337 333 334 331 330 329 333 329 328 329 330 330 327 325 324 323 321 318 317 315 314 314 314 314 314 314 313 313 313 312 311 311 311 310 310 310 310 310 310
336 340 339 337 337 337 332 333 331 326 329 329 330 331 332 331 329 326 324 322 319 318 317 316 315 315 315 314 314 313 313 313 314 313 311 311 311 311 310 309 310 310 309 309
340 337 344 337 335 330 328 332 335 332 332 334 331 331 330 329 327 324 322 319 318 317 317 315 315 315 314 314 314 314 312 313 312 311 311 311 310 310 310 311 310 308 308 307
337 336 337 336 333 334 331 330 332 330 332 330 329 330 329 327 325 322 319 318 317 317 316 315 315 314 314 314 314 314 313 312 311 310 310 311 310 310 309 309 309 309 309 308
334 336 335 339 337 331 330 333 330 331 330 328 327 328 327 326 324 321 319 318 317 316 316 315 315 315 315 315 314 313 313 312 311 311 310 310 310 310 309 309 309 309 308 309
335 335 336 336 339 337 336 330 328 331 330 328 328 327 325 325 323 320 319 318 316 316 316 315 314 315 315 314 313 313 313 311 311 310 310 310 311 308 309 309 309 309 309 308
Wind_Speed
2 3 4 9 7 4 3 6 4 1 3 4 9 14 9 12 9 6 11 13 13 14 18 24 28 29 25 18 12 11 10 11 11 12 12 13 15 13 14 13 11 12 13 13
3 5 8 6 5 5 6 7 5 3 9 6 4 14 8 14 13 11 13 14 17 10 13 19 23 26 23 19 12 11 11 10 12 11 6 17 14 10 10 9 11 11 12 13
5 6 7 6 8 5 4 8 6 10 4 2 3 9 4 6 11 14 13 15 16 22 19 15 20 22 25 21 16 11 12 12 11 12 15 15 10 10 9 8 8 10 12 12
5 10 6 7 8 6 6 8 8 8 6 6 9 5 6 5 17 19 13 11 16 17 15 16 21 22 25 21 17 16 12 12 10 9 9 10 9 8 6 6 7 8 8 12
8 7 6 8 12 8 11 6 7 10 9 5 2 3 7 5 5 5 5 7 14 15 15 16 20 24 27 24 20 16 14 12 12 10 6 8 7 6 6 6 7 9 10 10
9 6 6 10 11 7 6 3 4 4 4 1 7 6 3 2 3 3 8 9 6 11 10 14 22 25 26 25 21 18 17 15 11 8 8 7 7 3 5 7 8 9 10 11
5 6 11 4 6 4 4 6 2 3 4 6 3 3 7 9 12 12 15 13 14 14 13 13 18 19 25 27 23 20 19 19 12 9 7 7 5 4 4 5 6 8 10 12
7 6 9 6 9 10 8 9 6 6 4 5 2 5 5 9 7 8 13 18 20 20 15 15 22 22 27 29 26 21 22 21 13 8 7 6 4 3 4 5 5 6 8 10
6 6 4 7 6 9 4 3 9 6 0 2 3 4 5 7 13 8 16 15 16 17 19 18 22 23 26 29 28 26 23 20 15 9 7 6 4 2 3 3 5 6 6 9
5 2 4 3 1 3 8 5 2 3 4 5 3 3 5 8 10 7 11 19 19 19 19 16 17 25 27 32 29 27 25 22 16 12 8 6 4 1 1 2 3 5 8 11
9 4 9 4 4 7 1 3 3 5 5 5 4 6 6 11 9 10 12 16 21 20 18 13 21 25 32 33 33 29 28 23 18 14 11 8 5 2 2 0 3 5 7 9
10 6 8 11 9 6 9 10 7 5 5 2 3 6 7 13 15 13 15 17 19 18 15 15 25 28 30 33 33 29 29 25 20 15 10 7 4 3 2 1 3 5 7 8
9 3 2 9 6 2 5 6 5 4 4 7 6 6 4 7 9 13 17 16 16 15 17 16 21 23 25 29 32 28 30 24 19 15 10 6 5 4 4 1 2 5 6 9
12 5 8 9 7 2 2 4 5 6 4 5 6 5 3 10 13 10 12 16 16 18 19 17 13 20 24 28 30 28 29 24 20 14 11 8 6 6 4 2 3 5 6 9
10 9 7 8 6 4 5 6 8 7 10 8 7 10 11 15 15 17 17 17 18 19 18 17 15 18 24 26 28 27 31 26 21 16 12 9 9 7 5 5 5 6 5 6
1 6 8 4 5 2 2 6 6 4 1 4 9 1 4 9 12 13 18 20 21 20 18 16 16 22 24 26 28 30 31 27 21 15 12 11 11 8 7 6 6 6 5 5
1 6 4 8 2 5 4 3 3 3 3 7 4 7 7 12 17 19 20 22 21 20 20 19 19 25 26 28 32 32 32 27 20 13 13 11 10 9 9 8 7 4 6 6
4 6 4 4 3 4 5 5 1 6 4 7 5 4 14 15 14 17 18 21 19 20 20 18 23 23 26 31 33 31 30 26 20 14 14 12 12 11 9 7 4 5 8 9
5 5 3 5 3 3 2 1 2 2 3 5 8 5 0 6 7 2 14 21 23 21 19 25 28 28 30 33 32 29 28 25 20 17 16 14 13 10 6 5 3 5 7 8
4 5 5 3 5 5 8 5 2 2 5 5 7 12 11 6 7 5 7 9 11 18 24 26 27 29 31 30 29 26 25 22 18 19 15 11 10 7 5 2 2 4 5 6
1 2 6 3 3 5 6 5 4 4 7 2 4 6 8 5 5 4 12 10 19 22 27 28 29 27 31 29 25 21 19 17 16 14 14 13 11 6 3 2 3 3 5 4
5 6 3 3 4 3 6 4 8 6 1 5 7 9 10 9 12 11 14 15 17 23 26 27 26 27 28 25 22 15 10 14 13 12 16 12 7 5 3 4 4 3 3 3
3 1 5 5 5 4 6 5 5 6 6 4 6 8 16 15 14 13 14 16 16 23 24 25 28 28 24 20 17 17 12 12 17 16 12 8 5 4 4 3 3 2 2 2
4 3 0 3 4 7 7 7 4 3 5 6 10 14 16 17 14 14 13 14 13 22 23 25 26 23 21 18 18 15 12 12 15 14 10 6 4 3 5 5 6 6 5 3
3 3 2 2 4 5 7 5 2 5 11 11 8 13 15 17 13 15 13 12 17 21 22 25 23 23 21 20 18 13 10 8 16 11 6 6 5 5 5 7 8 9 9 6
4 4 4 5 3 5 7 7 3 9 9 13 17 9 8 15 14 13 11 16 21 21 22 20 23 26 23 21 18 15 13 11 12 10 8 5 4 5 7 9 9 9 9 10
Wind_Direction
227 93 217 204 188 144 161 138 136 88 202 159 245 266 188 199 206 181 172 168 163 160 150 139 132 137 133 121 111 98 117 109 107 119 110 122 113 94 67 49 51 43 36 35
14 217 226 261 241 199 204 168 187 346 252 163 347 267 179 202 182 173 190 185 163 147 145 141 136 134 138 133 130 113 109 115 109 101 112 129 121 95 67 55 44 39 27 19
159 230 196 224 274 279 248 173 204 211 235 62 60 313 204 163 172 183 198 186 164 160 157 154 147 138 140 139 137 126 119 117 112 108 112 122 105 79 57 32 14 18 16 10
236 245 208 221 239 187 258 242 237 210 128 218 139 256 294 194 187 189 183 164 167 166 158 152 148 140 142 145 143 144 131 118 110 110 108 99 85 70 43 354 343 358 2 10
227 205 188 219 234 217 243 276 265 251 180 125 194 112 284 93 183 183 352 199 172 170 164 156 149 147 147 151 149 145 141 128 116 99 104 106 87 78 40 31 12 20 20 30
219 276 173 212 234 235 242 250 34 55 159 244 198 146 269 213 138 95 93 114 170 172 159 157 148 148 148 157 153 151 150 146 123 108 124 119 104 70 55 34 23 24 33 36
288 246 257 208 242 229 144 76 343 327 345 233 181 78 216 202 197 198 178 144 154 174 158 165 155 159 151 160 160 154 157 152 137 132 125 122 114 84 61 48 35 29 29 28
199 283 186 207 188 187 195 156 161 202 207 264 51 227 265 217 206 170 160 166 159 177 162 165 169 172 156 168 164 163 165 151 153 148 128 124 138 88 66 59 57 40 32 23
180 254 223 187 200 142 246 193 180 138 274 79 200 304 280 238 270 170 177 163 173 169 162 169 178 170 162 169 169 169 167 155 162 155 153 161 145 104 68 80 50 27 24 19
236 271 210 220 96 286 170 164 78 12 183 237 252 199 233 207 240 242 176 176 181 159 162 170 156 160 164 170 173 174 169 167 167 168 166 156 153 120 92 60 30 30 30 33
193 113 275 114 185 214 281 237 129 128 140 189 195 253 215 206 187 185 170 162 160 163 168 154 149 154 164 168 170 173 170 164 168 174 171 174 158 127 164 312 44 50 38 27
192 170 226 235 249 229 212 210 163 140 252 169 170 262 187 193 181 172 168 167 166 166 161 151 155 156 156 166 169 172 170 170 172 172 172 171 182 177 198 289 27 17 12 9
170 215 307 335 342 1 201 194 150 122 99 190 150 258 185 197 152 171 169 173 168 154 148 155 157 165 157 163 167 171 171 171 170 168 160 173 196 210 218 302 2 358 356 359
135 132 167 212 210 152 340 256 181 145 136 180 209 193 160 188 193 175 179 176 164 154 158 161 162 164 165 167 166 169 172 171 168 166 167 184 208 222 228 276 307 338 339 355
135 183 178 217 207 232 282 260 255 188 230 178 226 184 191 186 185 182 174 164 159 163 164 166 162 164 165 166 166 167 170 172 171 166 171 189 212 229 244 272 285 308 304 348
334 207 172 238 162 125 324 10 347 327 37 112 136 168 189 164 159 160 165 165 169 169 168 165 163 165 167 167 165 168 170 171 172 173 184 204 226 240 248 273 292 298 301 326
18 123 113 229 134 52 2 337 282 257 349 129 129 221 137 157 167 165 170 171 170 170 172 171 171 169 165 166 166 168 172 171 174 177 191 212 228 248 257 273 299 294 328 323
182 114 114 174 70 197 232 284 126 89 63 85 75 153 177 171 173 167 168 166 173 171 171 170 167 165 164 168 175 174 173 174 176 184 197 212 230 243 259 272 272 318 337 340
187 122 102 127 137 263 348 265 148 171 206 137 151 185 72 101 80 64 182 174 175 174 170 164 162 160 166 172 173 171 174 178 183 193 205 213 221 227 225 297 271 324 335 341
81 91 116 94 130 193 228 247 259 351 304 259 184 186 155 148 161 210 177 160 144 147 150 146 147 154 163 169 165 166 174 183 197 207 206 203 208 223 197 250 320 323 326 328
60 34 160 142 145 284 238 226 171 151 232 283 120 118 105 108 186 155 115 110 129 134 132 134 140 146 157 159 162 164 175 192 211 220 198 180 182 206 226 269 296 317 325 298
163 147 183 93 96 249 201 100 156 207 236 171 133 134 137 129 111 119 122 124 125 125 128 133 134 145 156 159 160 163 181 216 220 190 173 174 185 207 227 276 296 307 334 339
42 157 169 164 215 273 332 287 159 153 146 176 111 105 120 120 123 127 124 123 127 128 130 135 138 145 151 155 154 142 125 141 158 164 169 170 201 232 248 269 292 301 329 26
13 7 108 103 352 345 319 318 29 138 134 125 127 129 132 128 128 124 125 128 127 132 134 139 142 145 147 152 160 156 141 148 170 168 161 188 233 235 253 253 252 260 276 272
190 350 329 10 19 337 332 322 168 89 104 98 93 132 133 126 133 134 134 134 134 138 142 148 150 151 155 161 159 153 167 180 173 171 185 199 223 246 268 283 280 270 278 257
165 190 166 222 137 146 267 268 158 130 130 132 122 111 121 130 132 133 133 137 139 144 148 152 155 155 159 162 167 173 173 182 177 184 199 215 258 281 285 282 279 266 279 264